Change the Weather History Date:

Tuesday, February 12, 2013

  Actual Average Record
Temperature  
Mean Temperature 22 °F -  
Max Temperature 25 °F 35 °F 44 °F (2001)
Min Temperature 20 °F 24 °F 0 °F (2011)
Degree Days  
Heating Degree Days 42    
Moisture  
Dew Point 20 °F    
Average Humidity 88    
Maximum Humidity 93    
Minimum Humidity 73    
Precipitation  
Precipitation 0.00 in - - ()
Sea Level Pressure  
Sea Level Pressure 30.23 in    
Wind  
Wind Speed 8 mph ()    
Max Wind Speed 12 mph    
Max Gust Speed -    
Visibility 6.3 miles    
Events Snow    
Averages and records for this station are not official NWS values.
T = Trace of Precipitation, MM = Missing Value Source: Averaged Metar Reports

Daily Weather History Graph

Daily Weather History Graph

Search for Another Location

Airport or City:

Trip Planner

Search our weather history database for the weather conditions in past years. The results will help you decide how hot, cold, wet, or windy it might be!

Date:

Astronomy

Feb. 12, 2013 Rise Set
Actual Time 8:00 AM CET 5:02 PM CET
Civil Twilight 7:16 AM CET 5:46 PM CET
Nautical Twilight 6:28 AM CET 6:34 PM CET
Astronomical Twilight 5:41 AM CET 7:21 PM CET
Moon 8:02 AM CET (2/12) 8:40 PM CET (2/12)
Length of Visible Light 10h 29m
Length of Day
9h 02m
Waxing Crescent, 6% of the Moon is Illuminated
Feb 12
Waxing Crescent
Feb 17
First Quarter
Feb 25
Full
Mar 4
Last Quarter
Mar 11
New

Hourly Weather History & Observations

Time (CET) Temp. Windchill Dew Point Humidity Pressure Visibility Wind Dir Wind Speed Gust Speed Precip Events Conditions
12:20 AM 21.2 °F 14.9 °F 19.4 °F 93% 30.21 in 6.2 mi NNE 4.6 mph - N/A Snow Light Snow
12:50 AM 21.2 °F 12.6 °F 17.6 °F 86% 30.24 in 6.2 mi NNE 6.9 mph - N/A Snow Snow Grains
1:00 AM 21 °F - 19 °F 88% 30.26 in 9 mi NNE 6.7 mph - - Snow Light Snow
1:20 AM 21.2 °F 12.6 °F 17.6 °F 86% 30.24 in 6.2 mi North 6.9 mph - N/A Snow Light Snow
1:50 AM 19.4 °F 10.4 °F 17.6 °F 93% 30.24 in 6.2 mi North 6.9 mph - N/A   Overcast
2:20 AM 21.2 °F 11.7 °F 17.6 °F 86% 30.24 in 6.2 mi North 8.1 mph - N/A   Overcast
2:50 AM 21.2 °F 13.6 °F 19.4 °F 93% 30.24 in 6.2 mi North 5.8 mph - N/A   Overcast
3:20 AM 21.2 °F 13.6 °F 19.4 °F 93% 30.24 in 6.2 mi North 5.8 mph - N/A   Overcast
3:50 AM 21.2 °F 12.6 °F 19.4 °F 93% 30.24 in 6.2 mi North 6.9 mph - N/A   Overcast
4:20 AM 21.2 °F 11.7 °F 17.6 °F 86% 30.24 in 6.2 mi North 8.1 mph - N/A   Overcast
4:50 AM 21.2 °F 10.9 °F 19.4 °F 93% 30.24 in 6.2 mi NNE 9.2 mph - N/A   Overcast
5:20 AM 21.2 °F 10.9 °F 19.4 °F 93% 30.24 in 6.2 mi North 9.2 mph - N/A   Overcast
5:50 AM 21.2 °F 10.9 °F 19.4 °F 93% 30.24 in 6.2 mi North 9.2 mph - N/A   Ice Crystals
6:20 AM 21.2 °F 10.9 °F 19.4 °F 93% 30.24 in 6.2 mi North 9.2 mph - N/A Snow Light Snow
6:50 AM 21.2 °F 10.9 °F 19.4 °F 93% 30.24 in 6.2 mi North 9.2 mph - N/A   Ice Crystals
7:00 AM 22 °F - 19 °F 83% 30.25 in 19 mi North 11.2 mph - -   Ice Crystals
7:20 AM 21.2 °F 10.1 °F 17.6 °F 86% 30.24 in 6.2 mi North 10.4 mph - N/A Snow Light Snow
7:50 AM 21.2 °F 10.1 °F 17.6 °F 86% 30.24 in 6.2 mi North 10.4 mph - N/A   Ice Crystals
8:20 AM 21.2 °F 10.9 °F 17.6 °F 86% 30.24 in 6.2 mi North 9.2 mph - N/A Snow Light Snow
8:50 AM 21.2 °F 10.1 °F 17.6 °F 86% 30.24 in 6.2 mi North 10.4 mph - N/A Snow Light Snow
9:20 AM 23.0 °F 13.1 °F 19.4 °F 86% 30.24 in 6.2 mi North 9.2 mph - N/A Snow Light Snow
9:50 AM 23.0 °F 13.1 °F 19.4 °F 86% 30.24 in 6.2 mi North 9.2 mph - N/A   Mostly Cloudy
10:20 AM 23.0 °F 13.1 °F 19.4 °F 86% 30.24 in 6.2 mi North 9.2 mph - N/A Snow Light Snow
10:50 AM 23.0 °F 13.9 °F 19.4 °F 86% 30.24 in 6.2 mi North 8.1 mph - N/A Snow Light Snow
11:20 AM 23.0 °F 12.4 °F 19.4 °F 86% 30.24 in 6.2 mi North 10.4 mph - N/A Snow Light Snow
11:50 AM 23.0 °F 13.1 °F 19.4 °F 86% 30.24 in 6.2 mi North 9.2 mph - N/A Snow Light Snow
12:20 PM 24.8 °F 16.9 °F 19.4 °F 80% 30.24 in 6.2 mi North 6.9 mph - N/A Snow Light Snow
12:50 PM 24.8 °F 16.1 °F 19.4 °F 80% 30.24 in 6.2 mi Variable 8.1 mph - N/A   Mostly Cloudy
1:00 PM 25 °F - 20 °F 73% 30.25 in 11 mi North 8.9 mph - - Snow Light Snow
1:20 PM 24.8 °F 14.6 °F 19.4 °F 80% 30.24 in 6.2 mi NNE 10.4 mph - N/A Snow Light Snow
1:50 PM 24.8 °F 14.6 °F 19.4 °F 80% 30.21 in 6.2 mi NNE 10.4 mph - N/A Snow Light Snow
2:20 PM 24.8 °F 15.3 °F 19.4 °F 80% 30.21 in 6.2 mi North 9.2 mph - N/A Snow Light Snow
2:50 PM 24.8 °F 14.0 °F 21.2 °F 86% 30.21 in 5.6 mi North 11.5 mph - N/A Snow Light Snow
3:20 PM 24.8 °F 14.6 °F 21.2 °F 86% 30.21 in 6.2 mi North 10.4 mph - N/A Snow Light Snow
3:50 PM 24.8 °F 16.1 °F 21.2 °F 86% 30.21 in 6.2 mi North 8.1 mph - N/A Snow Light Snow
4:20 PM 24.8 °F 16.1 °F 21.2 °F 86% 30.21 in 6.2 mi North 8.1 mph - N/A Snow Light Snow
4:50 PM 24.8 °F 16.9 °F 21.2 °F 86% 30.21 in 6.2 mi North 6.9 mph - N/A Snow Light Snow
5:20 PM 24.8 °F 15.3 °F 21.2 °F 86% 30.21 in 6.2 mi North 9.2 mph - N/A Snow Light Snow
5:50 PM 24.8 °F 14.6 °F 21.2 °F 86% 30.21 in 6.2 mi North 10.4 mph - N/A Snow Light Snow
6:20 PM 24.8 °F 14.6 °F 21.2 °F 86% 30.21 in 6.2 mi North 10.4 mph - N/A Snow Light Snow
6:50 PM 23.0 °F 12.4 °F 21.2 °F 93% 30.21 in 5.0 mi North 10.4 mph - N/A Snow Light Snow
7:00 PM 24 °F - 21 °F 84% 30.23 in 5 mi North 8.9 mph - - Snow Light Snow
7:20 PM 23.0 °F 13.1 °F 21.2 °F 93% 30.21 in 5.0 mi North 9.2 mph - N/A Snow Light Snow
7:45 PM 23.0 °F 13.1 °F 21.2 °F 93% 30.21 in 6.2 mi North 9.2 mph - N/A Snow Light Snow
8:20 PM 23.0 °F 13.1 °F 21.2 °F 93% 30.21 in 6.2 mi North 9.2 mph - N/A Snow Light Snow
8:50 PM 23.0 °F 13.1 °F 19.4 °F 86% 30.21 in 6.2 mi North 9.2 mph - N/A Snow Light Snow
9:20 PM 23.0 °F 13.9 °F 19.4 °F 86% 30.21 in 5.6 mi North 8.1 mph - N/A Snow Light Snow
9:50 PM 23.0 °F 12.4 °F 21.2 °F 93% 30.21 in 3.7 mi North 10.4 mph - N/A Snow Light Snow
10:20 PM 23.0 °F 13.9 °F 21.2 °F 93% 30.21 in 3.1 mi North 8.1 mph - N/A Snow Light Snow
10:50 PM 23.0 °F 13.9 °F 21.2 °F 93% 30.21 in 5.0 mi North 8.1 mph - N/A Snow Light Snow
11:20 PM 23.0 °F 14.7 °F 21.2 °F 93% 30.21 in 6.2 mi North 6.9 mph - N/A Snow Light Snow
11:50 PM 23.0 °F 13.9 °F 21.2 °F 93% 30.21 in 4.3 mi North 8.1 mph - N/A Snow Light Snow